Regional Weather Roundup
Issued by NWS

Home | Current Version | Previous Version | Text Only | Print | Product List | Glossary Off
Versions: 1 2 3 4 5 6 7 8 9 10 11 12 13 14 15 16 17 18 19 20 21 22 23 24 25 26 27 28 29 30 31 32 33 34 35 36 37 38 39 40 41 42 43 44 45 46 47 48 49 50

000
ASUS43 KMPX 072001
RWRMN
WEATHER ROUNDUP FOR MINNESOTA
NATIONAL WEATHER SERVICE TWIN CITIES/CHANHASSEN MN
200 PM CST WED DEC 07 2016


NOTE: "FAIR" INDICATES FEW OR NO CLOUDS BELOW 12,000 FEET WITH NO
SIGNIFICANT WEATHER AND/OR OBSTRUCTIONS TO VISIBILITY. N/A MEANS
CURRENT SKY AND/OR WEATHER CONDITIONS ARE NOT AVAILABLE.

MNZ060>063-068>070-072100-
   Twin Cities Metro

CITY           SKY/WX    TMP DP  RH WIND       PRES   REMARKS
TWIN CITIES    FLURRIES  20   8  60 W23G29    30.04S WCI   3
ST PAUL        CLOUDY    20  10  65 W21G30    30.05S WCI   4
CRYSTAL        CLOUDY    19   6  57 W18G29    30.03S WCI   4
BLAINE         FLURRIES  21  10  63 W20G26    30.01S WCI   6
LAKEVILLE      CLOUDY    18  10  73 W20G26    30.05S WCI   1
EDEN PRAIRIE   CLOUDY    20   9  62 W20G28    30.04S WCI   4
SOUTH ST PAUL  CLOUDY    21  10  61 W15G28    30.04S WCI   7
LAKE ELMO      PTSUNNY   21  12  68 W18G28    30.03R WCI   6
$$
MNZ001>005-007-008-013>017-022>024-027-028-072100-
   Northwest Minnesota

CITY           SKY/WX    TMP DP  RH WIND       PRES   REMARKS
BEMIDJI        LGT SNOW  16  12  86 W20G25    29.86R WCI  -1
HALLOCK        CLOUDY    23  21  93 NW24G32   29.92S WCI   7
ROSEAU         LGT SNOW  27  21  80 NW14      29.84R WCI  15
WARROAD        LGT SNOW  25  21  86 NW10      29.83R WCI  15
THIEF RVR FALL LGT SNOW  20  17  88 NW18G26   29.91R FOG     WCI   5
CROOKSTON      LGT SNOW  19  18  93 NW25      29.97R WCI   2
FOSSTON        LGT SNOW  16  12  86 W15       29.92R WCI   1
DETROIT LAKES  LGT SNOW  14  12  92 W14G21    29.99R WCI  -1
MOORHEAD       CLOUDY    14  10  85 W25       30.05S VSB 3/4 WCI  -5
PARK RAPIDS    LGT SNOW  15   7  70 W21G29    29.92R VSB 1   WCI  -2
$$
MNZ006-009>011-018-025>026-072100-
   North Central Minnesota

CITY           SKY/WX    TMP DP  RH WIND       PRES   REMARKS
BAUDETTE       LGT SNOW  25  20  81 NW15G23   29.77R VSB 1   WCI  13
FLAG ISLAND    LGT SNOW  25  21  86 N20       29.80R WCI  11
INTL FALLS     SNOW      25  21  85 W9        29.72R VSB 1/2 WCI  15
WASKISH        LGT SNOW  25  21  86 W16G24    29.80R WCI  12
BIG FORK       LGT SNOW  19  16  86 W13G18    29.79R WCI   7
LONGVILLE      LGT SNOW  18  10  73 W14G20    29.88R WCI   4
GRAND RAPIDS   LGT SNOW  18  13  80 W17G23    29.84  WCI   3
CRANE LAKE     FLURRIES  23  19  86 W6        29.72R WCI  16
COOK           LGT SNOW  21  18  86 W14       29.74R WCI   8
$$
MNZ012-019>021-037-072100-
   Northeast Minnesota

CITY           SKY/WX    TMP DP  RH WIND       PRES   REMARKS
DULUTH         CLOUDY    18  11  74 W22G31    29.79R WCI   1
ELY            LGT SNOW  21  18  86 W13G20    29.69R WCI   9
HIBBING        LGT SNOW  17  13  84 W13G23    29.78R VSB 1   WCI   4
EVELETH        LGT SNOW  20  15  82 W14       29.77R VSB 1   WCI   7
DULUTH HARBOR  CLOUDY    23  14  68 SW26G32   29.86R WCI   6
TWO HARBORS    LGT SNOW  21  16  79 W15G25    29.77R WCI   8
SILVER BAY     LGT SNOW  23  16  74 W13G22    29.73R WCI  11
GRAND MARAIS     N/A     28  21  75 W10G21    29.68R WCI  19
G MARAIS ARPRT CLOUDY    19  14  79 W8G20     29.61R WCI   9
$$
MNZ029>031-032-039>041-046>048-054>057-064-072100-
   West Central Minnesota

CITY           SKY/WX    TMP DP  RH WIND       PRES   REMARKS
FERGUS FALLS   LGT SNOW  12   9  85 NW25G35   30.10S VSB 1   WCI  -8
WHEATON        CLOUDY    18  10  73 W26G35    30.13S WCI  -1
MORRIS         LGT SNOW  16   9  73 W29G37    30.08S WCI  -4
ALEXANDRIA     LGT SNOW  14   8  77 W24G33    30.03R WCI  -5
ELBOW LAKE     LGT SNOW  14  10  86 NW20G28   30.07S WCI  -4
WADENA         LGT SNOW  12   7  79 W21G26    29.97R WCI  -6
GLENWOOD       LGT SNOW  14   9  79 W20G31    30.04R WCI  -3
APPLETON       CLOUDY    19   9  63 NW21G33   30.11R WCI   3
BENSON         FLURRIES  18   9  68 NW23G31   30.09S WCI   0
ORTONVILLE     CLOUDY    18   7  62 NW24G33   30.12R WCI   0
MADISON        CLOUDY    19   9  63 W29G35    30.15R WCI   1
WILLMAR        FLURRIES  19  10  68 W25G33    30.08S WCI   2
$$
MNZ033>034-036-042>043-049>051-058-059-072100-
   Central Minnesota

CITY           SKY/WX    TMP DP  RH WIND       PRES   REMARKS
ST CLOUD       FLURRIES  18   8  65 W18G30    30.02R WCI   2
PAYNESVILLE    LGT SNOW  16   8  71 W21G35    30.06R WCI  -1
AITKIN         FLURRIES  19   9  63 W14G31    29.89S WCI   6
PINE RIVER     FLURRIES  16   9  73 W13G20    29.95R WCI   2
BRAINERD       FLURRIES  16   8  71 W21       29.94S WCI  -1
STAPLES        FLURRIES  14   9  79 W20G25    29.97R WCI  -3
LONG PRAIRIE   LGT SNOW  14   9  79 SW15G24   30.01R WCI  -1
LITTLE FALLS   LGT SNOW  18   9  68 W17G31    30.00R WCI   2
LITCHFIELD     FLURRIES  19  10  68 W20G29    30.06R WCI   4
BUFFALO        FLURRIES  19  10  66 W21       30.05S WCI   3
MAPLE LAKE     CLOUDY    20  11  70 W20G25    30.05R WCI   4
HUTCHINSON     CLOUDY    19  11  70 W18G31    30.07S WCI   4
$$
MNZ037-044-045-052-053-072100-
   East Central Minnesota

CITY           SKY/WX    TMP DP  RH WIND       PRES   REMARKS
PRINCETON      CLOUDY    19  10  68 W16G24    30.00R WCI   5
MORA           MOSUNNY   19   9  63 W21       29.97S WCI   3
CAMBRIDGE      FLURRIES  21  10  63 W13G24    29.97S WCI   9
RUSH CITY      CLOUDY    19  10  68 W15G23    29.97S WCI   5
MOOSE LAKE     CLOUDY    19  10  68 W14G22    29.87S WCI   6
HINCKLEY       FLURRIES  19  12  73 W15G23    29.94S WCI   5
CLOQUET        FLURRIES  18   9  68 SW20G26   29.83R WCI   1
MCGREGOR       CLOUDY    19  10  68 W12G21    29.89R WCI   7
$$
MNZ071>073-080-081-089-090-097-098-072100-
   Southwest Minnesota

CITY           SKY/WX    TMP DP  RH WIND       PRES   REMARKS
MONTEVIDEO     CLOUDY    19   9  63 NW21G29   30.13S WCI   3
GRANITE FALLS  CLOUDY    21  11  66 W30G37    30.15S WCI   2
CANBY          MOSUNNY   19   9  65 NW23G37   30.16S WCI   1
MARSHALL       FLURRIES  18   8  65 W30G37    30.13R WCI  -1
REDWOOD FALLS  CLOUDY    21   7  54 W25G36    30.11R WCI   4
OLIVIA         MOSUNNY   21  10  63 W21G31    30.09R WCI   6
PIPESTONE      PTSUNNY   18   9  68 NW24G33   30.15R WCI   0
WINDOM         PTSUNNY   21   9  58 W28G33    30.12R WCI   3
WORTHINGTON    SUNNY     18   9  68 W28G38    30.14S WCI  -1
JACKSON        PTSUNNY   21  10  63 W24G33    30.12S WCI   4
TRACY          MOSUNNY   20  10  65 NW25G31   30.14S WCI   3
SLAYTON        SUNNY     17   9  68 W29G35    30.13R WCI  -2
$$
MNZ065>067-074>077-082>085-091>093-072100-
   South Central Minnesota

CITY           SKY/WX    TMP DP  RH WIND       PRES   REMARKS
MANKATO        FLURRIES  19  10  68 W20G29    30.09S WCI   3
NEW ULM        CLOUDY    19   9  63 W28G35    30.10S WCI   1
ST JAMES       PTSUNNY   21  10  63 W25G32    30.12S WCI   4
FAIRMONT       PTSUNNY   22  11  62 NW26G36   30.12S WCI   5
GLENCOE        FLURRIES  20  13  74 W15G30    30.07R WCI   6
FARIBAULT      FLURRIES  18  10  73 W17G26    30.07S WCI   2
OWATONNA       FLURRIES  19  10  68 W20G25    30.07S WCI   4
WASECA         CLOUDY    21  12  68 W23       30.09S WCI   5
ALBERT LEA     CLOUDY    23  14  68 W13G23    30.08S WCI  11
$$
MNZ078>079-086>088-094>096-072100-
   Southeast Minnesota

CITY           SKY/WX    TMP DP  RH WIND       PRES   REMARKS
ROCHESTER      FLURRIES  18  11  74 W23G29    30.04R WCI   0
RED WING       CLOUDY    21  10  63 W22       30.03S WCI   5
STANTON        CLOUDY    21  11  66 W17G25    30.05S WCI   6
DODGE CENTER   LGT SNOW  18  10  73 W21       30.04S WCI   1
WINONA         CLOUDY    23  14  68 W10G17    30.07S WCI  12
AUSTIN         FLURRIES  19  12  73 W16G24    30.08R WCI   5
PRESTON        LGT SNOW  17  11  77 W21       30.06S WCI   0
$$
ABBREVIATIONS USED IN REMARKS
   TC - TEMPERATURES IN CELSIUS
  WCI - WIND CHILL INDEX
   HX - HEAT INDEX
  VSB - VISIBILITY
$$



USA.gov is the U.S. government's official web portal to all federal, state and local government web resources and services.